Torna al catalogo

QZS-6

AttivoNavigazioneGEO
NORAD 62876·PAYLOAD·🇯🇵 Japan

Lanciato Feb 2, 2025 da Tanegashima Space Center

Loading…

TLE

AggiornatoSource: CelesTrak SupGP

Epoca: Sep 13, 2026, 00:00 UTC

1 62876C 25023A   26256.00000000 -.00000143  00000+0  00000+0 0  2565
2 62876   0.0418  73.1354 0001649 110.3453 259.0041  1.00270348    11

Traccia QZS-6 in tempo reale con AllMySat

Download on the App Store